Canby, MN

1:15 AM CDT on October 21, 2017 (GMT -0500)
Canby

Weather History for KCNB - March, 2014

Change the Weather History Date:

Tuesday, March 4, 2014

  Actual Average (KMML) Record (KMML)
Temperature  
Mean Temperature 10 °F -  
Max Temperature 16 °F 35 °F 61 °F (1987)
Min Temperature 5 °F 16 °F -13 °F (1952)
Degree Days  
Heating Degree Days 54    
Moisture  
Dew Point 9 °F    
Average Humidity 87    
Maximum Humidity 93    
Minimum Humidity 75    
Precipitation  
Precipitation 0.01 in - - ()
Sea Level Pressure  
Sea Level Pressure 30.14 in    
Wind  
Wind Speed 7 mph (ENE)    
Max Wind Speed 14 mph    
Max Gust Speed 16 mph    
Visibility 4 miles    
Events Snow    
Averages and records for this station are not official NWS values.
T = Trace of Precipitation, MM = Missing Value Source: NWS Daily Summary

Daily Weather History Graph

Daily Weather History Graph

Search for Another Location

Airport or City:

Trip Planner

Search our weather history database for the weather conditions in past years. The results will help you decide how hot, cold, wet, or windy it might be!

Date:

Astronomy

Mar. 04, 2014 Rise Set
Actual Time 6:57 AM CST 6:16 PM CST
Civil Twilight 6:28 AM CST 6:46 PM CST
Nautical Twilight 5:54 AM CST 7:19 PM CST
Astronomical Twilight 5:20 AM CST 7:53 PM CST
Moon 8:33 AM CST (3/4) 10:37 PM CST (3/4)
Length of Visible Light 12h 18m
Length of Day
11h 19m
Waxing Crescent, 15% of the Moon is Illuminated
Mar 4
Waxing Crescent
Mar 8
First Quarter
Mar 16
Full
Mar 23
Last Quarter
Mar 30
New

Hourly Weather History & Observations

Time (CST) Temp. Windchill Dew Point Humidity Pressure Visibility Wind Dir Wind Speed Gust Speed Precip Events Conditions
12:14 AM 10.8 °F 1.2 °F 6.3 °F 82% 30.11 in 10.0 mi ESE 5.8 mph - N/A   Overcast
12:35 AM 11.1 °F 0.4 °F 6.1 °F 80% 30.11 in 10.0 mi East 6.9 mph - N/A   Overcast
12:55 AM 11.1 °F 1.7 °F 6.3 °F 81% 30.11 in 10.0 mi ESE 5.8 mph - N/A   Overcast
1:14 AM 11.1 °F 1.7 °F 6.3 °F 81% 30.12 in 10.0 mi East 5.8 mph - N/A   Overcast
1:34 AM 10.9 °F 1.4 °F 6.8 °F 83% 30.12 in 10.0 mi ESE 5.8 mph - N/A   Overcast
1:55 AM 11.1 °F -0.6 °F 6.6 °F 82% 30.10 in 10.0 mi East 8.1 mph - N/A   Overcast
2:14 AM 10.9 °F 0.2 °F 6.8 °F 83% 30.11 in 10.0 mi East 6.9 mph - N/A   Overcast
2:34 AM 10.9 °F 0.2 °F 6.8 °F 83% 30.11 in 10.0 mi East 6.9 mph - N/A   Overcast
2:55 AM 10.9 °F 0.2 °F 7.2 °F 85% 30.11 in 7.0 mi East 6.9 mph - N/A Snow Light Snow
3:14 AM 10.6 °F -0.2 °F 7.2 °F 86% 30.11 in 5.0 mi East 6.9 mph - N/A Snow Light Snow
3:35 AM 10.2 °F -1.7 °F 7.2 °F 87% 30.10 in 3.0 mi ENE 8.1 mph - N/A Snow Light Snow
3:54 AM 9.1 °F -0.7 °F 6.4 °F 89% 30.11 in 4.0 mi ENE 5.8 mph - N/A Snow Light Snow
4:13 AM 8.8 °F -1.1 °F 6.3 °F 89% 30.10 in 3.0 mi ENE 5.8 mph - N/A Snow Light Snow
4:34 AM 7.7 °F -0.9 °F 5.5 °F 91% 30.10 in 2.0 mi ENE 4.6 mph - N/A Snow Light Snow
4:54 AM 6.8 °F -2.0 °F 4.6 °F 91% 30.10 in 5.0 mi NE 4.6 mph - N/A Snow Light Snow
5:14 AM 6.8 °F - 4.6 °F 91% 30.10 in 4.0 mi Calm Calm - N/A Snow Light Snow
5:35 AM 6.8 °F -0.1 °F 4.6 °F 91% 30.10 in 2.5 mi NE 3.5 mph - N/A Snow Light Snow
5:54 AM 6.3 °F -0.7 °F 4.1 °F 91% 30.10 in 4.0 mi NE 3.5 mph - N/A Snow Light Snow
6:14 AM 5.9 °F -1.1 °F 3.7 °F 91% 30.10 in 4.0 mi NE 3.5 mph - N/A Snow Light Snow
6:34 AM 5.4 °F -1.7 °F 3.2 °F 91% 30.10 in 4.0 mi NE 3.5 mph - N/A Snow Light Snow
6:55 AM 5.7 °F - 3.6 °F 91% 30.12 in 4.0 mi Calm Calm - N/A Snow Light Snow
7:15 AM 5.2 °F -1.9 °F 3.0 °F 91% 30.12 in 1.0 mi NNE 3.5 mph - N/A Snow Light Snow
7:34 AM 6.1 °F - 3.7 °F 90% 30.13 in 0.5 mi Calm Calm - N/A Snow Snow
7:54 AM 7.2 °F 0.3 °F 5.0 °F 91% 30.13 in 1.8 mi North 3.5 mph - N/A Snow Light Snow
8:14 AM 8.4 °F -1.6 °F 6.4 °F 92% 30.14 in 7.0 mi NE 5.8 mph - N/A Snow Light Snow
8:35 AM 8.6 °F -1.3 °F 6.8 °F 92% 30.14 in 7.0 mi NE 5.8 mph - N/A Snow Light Snow
8:54 AM 9.9 °F -2.2 °F 7.7 °F 91% 30.14 in 7.0 mi ENE 8.1 mph - N/A Snow Light Snow
9:14 AM 11.1 °F -0.6 °F 8.2 °F 88% 30.14 in 4.0 mi ENE 8.1 mph - N/A Snow Light Snow
9:34 AM 11.7 °F 1.1 °F 8.2 °F 86% 30.13 in 5.0 mi ENE 6.9 mph - N/A Snow Light Snow
9:54 AM 12.0 °F 1.5 °F 7.7 °F 83% 30.14 in 7.0 mi NE 6.9 mph - N/A Snow Light Snow
10:14 AM 12.6 °F 3.4 °F 7.9 °F 82% 30.14 in 10.0 mi NE 5.8 mph - N/A   Overcast
10:34 AM 13.1 °F 0.9 °F 8.2 °F 81% 30.13 in 5.0 mi ENE 9.2 mph - N/A Snow Light Snow
10:55 AM 13.3 °F 1.1 °F 8.4 °F 81% 30.12 in 10.0 mi ENE 9.2 mph - N/A   Overcast
11:14 AM 13.6 °F 1.6 °F 8.4 °F 80% 30.12 in 10.0 mi ENE 9.2 mph 16.1 mph N/A   Overcast
11:34 AM 14.0 °F 1.2 °F 8.4 °F 78% 30.13 in 10.0 mi ENE 10.4 mph - N/A   Overcast
11:54 AM 14.4 °F 1.6 °F 8.6 °F 78% 30.12 in 7.0 mi East 10.4 mph - N/A   Overcast
12:14 PM 14.9 °F 4.0 °F 8.6 °F 76% 30.13 in 10.0 mi ENE 8.1 mph - N/A   Overcast
12:34 PM 14.9 °F 3.1 °F 8.6 °F 76% 30.12 in 10.0 mi ENE 9.2 mph - N/A   Overcast
12:54 PM 15.3 °F 1.4 °F 9.1 °F 77% 30.12 in 10.0 mi ENE 12.7 mph - N/A   Overcast
1:14 PM 15.6 °F 3.2 °F 9.0 °F 75% 30.12 in 10.0 mi ENE 10.4 mph - N/A   Overcast
1:34 PM 16.3 °F 2.1 °F 9.7 °F 75% 30.12 in 7.0 mi NE 13.8 mph - N/A Snow Light Snow
1:54 PM 16.7 °F 3.8 °F 10.0 °F 75% 30.11 in 5.0 mi East 11.5 mph - N/A Snow Light Snow
2:14 PM 16.7 °F 4.5 °F 10.6 °F 77% 30.11 in 7.0 mi East 10.4 mph - N/A Snow Light Snow
2:35 PM 16.7 °F 3.8 °F 10.8 °F 77% 30.12 in 2.0 mi East 11.5 mph - N/A Snow Light Snow
2:54 PM 16.5 °F 2.4 °F 11.8 °F 82% 30.11 in 1.2 mi ENE 13.8 mph - N/A Snow Light Snow
3:14 PM 16.2 °F 1.9 °F 11.8 °F 83% 30.12 in 1.2 mi East 13.8 mph - N/A Snow Light Snow
3:35 PM 16.0 °F 1.7 °F 12.4 °F 86% 30.12 in 1.5 mi East 13.8 mph - N/A Snow Light Snow
3:54 PM 15.8 °F 2.7 °F 12.6 °F 87% 30.12 in 0.8 mi ENE 11.5 mph - N/A Snow Light Snow
4:14 PM 15.6 °F 2.5 °F 12.4 °F 87% 30.13 in 1.5 mi East 11.5 mph - N/A Snow Light Snow
4:35 PM 15.6 °F 4.0 °F 12.9 °F 89% 30.14 in 0.8 mi East 9.2 mph - N/A Snow Light Snow
4:54 PM 15.3 °F 2.8 °F 12.7 °F 90% 30.15 in 0.5 mi East 10.4 mph - N/A Snow Light Snow
5:14 PM 15.3 °F 5.4 °F 12.7 °F 90% 30.15 in 0.5 mi East 6.9 mph - N/A Snow Snow
5:35 PM 14.9 °F 3.1 °F 12.7 °F 91% 30.15 in 0.5 mi ENE 9.2 mph - N/A Snow Snow
5:54 PM 14.7 °F 3.8 °F 12.7 °F 92% 30.16 in 0.5 mi East 8.1 mph - N/A Snow Snow
6:14 PM 14.7 °F 2.9 °F 12.7 °F 92% 30.16 in 0.5 mi East 9.2 mph - 0.01 in Snow Snow
6:34 PM 14.5 °F 2.7 °F 12.6 °F 92% 30.17 in 1.5 mi East 9.2 mph - 0.01 in Snow Light Snow
6:54 PM 14.5 °F 2.7 °F 12.6 °F 92% 30.18 in 1.2 mi East 9.2 mph - 0.01 in Snow Light Snow
7:14 PM 14.5 °F 5.7 °F 12.7 °F 93% 30.18 in 1.0 mi ENE 5.8 mph - N/A Snow Snow
7:35 PM 14.5 °F 2.7 °F 12.7 °F 93% 30.19 in 1.2 mi NE 9.2 mph - N/A Snow Light Snow
7:54 PM 14.2 °F 0.7 °F 12.2 °F 92% 30.19 in 1.5 mi ENE 11.5 mph - N/A Snow Light Snow
8:14 PM 14.0 °F 1.2 °F 12.2 °F 93% 30.20 in 0.8 mi ENE 10.4 mph - N/A Snow Snow
8:35 PM 14.0 °F -0.2 °F 12.2 °F 93% 30.20 in 1.5 mi NE 12.7 mph - N/A Snow Light Snow
8:55 PM 13.8 °F 0.2 °F 12.0 °F 93% 30.21 in 1.5 mi NE 11.5 mph - N/A Snow Light Snow
9:14 PM 14.0 °F 1.2 °F 12.2 °F 93% 30.22 in 2.5 mi NE 10.4 mph - N/A Snow Light Snow
9:34 PM 13.8 °F 0.2 °F 12.0 °F 93% 30.23 in 3.0 mi NE 11.5 mph - N/A Snow Light Snow
9:55 PM 13.6 °F 0.7 °F 11.7 °F 92% 30.24 in 1.8 mi ENE 10.4 mph - N/A Snow Light Snow
10:14 PM 13.6 °F 1.6 °F 11.8 °F 93% 30.24 in 1.2 mi ENE 9.2 mph - N/A Snow Light Snow
10:34 PM 13.6 °F 0.7 °F 11.8 °F 93% 30.25 in 1.2 mi ENE 10.4 mph - N/A Snow Light Snow
10:54 PM 13.6 °F 2.5 °F 11.8 °F 93% 30.25 in 1.2 mi ENE 8.1 mph - N/A Snow Light Snow
11:13 PM 13.6 °F 3.5 °F 11.8 °F 93% 30.26 in 2.0 mi ENE 6.9 mph - N/A Snow Light Snow
11:25 PM 14.0 °F 3.9 °F 12.2 °F 93% 30.26 in 2.0 mi ENE 6.9 mph - N/A   Overcast
11:45 PM 14.0 °F 3.9 °F 12.2 °F 93% 30.26 in 2.0 mi ENE 6.9 mph - N/A   Overcast